Theta_e
303 297 294 297 298 299 298 296 295 298 300 297 295 295 297 301 300 299 299 299 301 302 305 308 312 314 315 315 312 312 309 311 313 313 312 314 315 316 317 318 321 323 325 326
299 294 300 302 301 298 297 294 294 297 300 296 295 295 297 300 300 299 299 299 300 300 303 307 309 311 312 313 314 313 310 311 312 313 313 313 315 317 317 319 321 325 326 327
297 301 304 301 299 297 296 294 294 294 298 296 294 292 295 299 301 301 300 300 300 301 302 305 307 306 311 310 311 314 312 309 309 313 315 316 316 318 320 321 321 322 326 327
299 302 302 299 298 298 292 298 298 297 293 287 295 284 292 296 298 300 299 298 299 300 303 305 305 304 310 312 313 313 313 311 311 309 314 313 313 314 317 321 322 324 326 327
299 299 298 298 299 300 297 301 297 296 292 288 291 286 291 296 295 299 298 299 298 300 302 305 305 306 308 313 314 314 313 313 312 311 315 316 316 317 320 321 322 321 324 326
301 304 302 301 303 302 303 296 295 293 289 283 289 288 288 293 297 299 299 300 300 300 302 306 306 307 307 309 314 313 313 315 312 312 314 316 315 315 314 313 317 319 322 325
298 299 301 303 297 298 295 290 283 282 282 283 292 289 291 297 300 302 302 300 300 301 301 305 305 306 307 309 314 313 313 312 314 312 313 313 312 310 312 312 314 316 319 322
292 291 299 302 298 296 293 292 285 280 280 286 294 288 294 301 306 303 306 302 301 300 300 304 305 306 307 309 312 314 313 311 312 311 311 312 312 311 310 310 311 313 317 322
292 293 301 301 301 298 293 290 293 288 288 286 289 295 302 303 304 303 300 300 300 300 301 305 305 305 306 308 309 314 313 310 310 310 310 311 312 312 310 311 310 311 314 321
296 290 298 301 301 300 295 297 289 287 281 280 286 291 293 300 302 303 299 298 300 300 302 304 304 305 306 308 309 313 312 309 311 309 309 310 310 311 311 310 310 312 313 315
297 294 294 299 297 295 295 294 294 290 288 283 280 288 301 302 304 303 301 300 300 301 303 304 304 306 306 307 308 312 311 309 309 307 309 310 310 310 310 310 310 311 312 314
298 293 290 296 302 304 298 296 295 289 287 290 288 290 303 305 308 306 303 302 302 303 304 304 304 305 305 307 309 311 311 310 309 310 310 310 309 308 308 309 310 310 311 312
297 291 288 291 298 301 297 301 300 297 295 291 289 291 304 308 305 305 301 302 302 302 302 302 304 305 307 307 309 310 310 311 311 312 311 310 308 306 306 307 309 310 311 311
304 292 293 289 292 298 296 300 301 297 291 294 294 296 300 305 305 307 302 301 302 303 304 304 305 305 307 308 309 310 309 311 312 312 311 310 307 306 306 307 308 309 309 309
299 293 294 297 298 300 298 299 300 296 296 294 297 297 302 305 306 309 304 301 301 302 303 305 305 306 308 307 308 310 308 309 313 312 311 309 307 305 306 307 306 306 307 308
298 292 298 296 298 300 298 300 301 300 299 298 299 298 307 309 311 308 306 302 302 302 304 306 307 307 308 309 308 309 307 309 313 312 312 310 308 306 306 306 305 305 305 304
297 294 293 291 298 299 293 298 299 300 302 300 295 302 306 306 309 308 309 305 303 304 305 306 307 308 310 310 309 307 306 309 313 313 313 313 310 307 306 306 306 303 301 301
298 296 295 292 295 287 298 305 305 302 303 302 302 303 305 306 309 311 310 307 307 306 305 307 308 309 310 311 308 308 306 310 313 313 315 314 310 306 306 305 304 301 300 299
302 297 292 293 285 294 298 302 301 300 299 305 304 304 306 307 307 307 312 311 310 308 307 308 310 310 310 311 309 308 307 309 313 314 316 315 311 307 306 305 303 302 300 299
300 299 296 287 287 288 295 303 308 305 294 305 306 305 304 306 299 306 312 313 312 312 310 308 310 310 310 311 310 309 307 309 311 314 316 317 313 309 306 305 304 304 301 300
294 293 292 286 285 292 300 306 306 292 295 305 308 307 304 303 306 309 310 313 313 312 311 309 309 309 311 311 311 309 308 308 312 316 317 318 315 311 308 306 305 306 304 302
293 290 289 289 286 288 305 305 299 302 305 309 307 306 307 308 308 309 311 310 312 310 311 309 308 309 311 312 311 310 309 311 312 315 317 317 316 316 311 308 306 307 306 304
294 296 292 294 293 301 307 306 308 305 306 308 308 309 310 309 309 310 311 311 312 312 312 310 309 309 309 312 312 311 312 312 312 314 315 316 318 317 315 310 308 306 306 306
300 302 297 297 299 301 306 307 306 307 306 310 309 309 311 310 311 311 311 311 312 311 312 311 309 308 308 311 312 313 313 314 313 313 315 316 316 317 317 315 313 311 309 308
301 301 297 297 298 302 302 306 306 308 311 312 312 313 312 311 312 312 312 310 311 310 313 313 310 309 309 310 312 313 314 315 314 314 315 316 317 315 317 317 316 315 314 311
301 301 298 296 301 301 302 305 308 308 309 311 311 312 315 314 313 310 309 312 313 312 313 311 312 310 310 310 311 312 314 314 314 314 314 315 316 316 317 317 317 305 304 302
Wind_Speed
3 4 6 8 7 6 5 4 7 4 4 6 12 8 10 8 4 8 8 8 7 7 6 5 5 5 3 1 2 1 4 3 3 2 3 3 3 3 3 3 5 4 3 5
2 8 8 7 4 4 5 7 7 7 4 8 6 12 5 8 10 7 11 8 9 5 5 5 5 5 1 2 2 1 2 4 3 1 1 2 2 2 2 4 5 5 5 7
10 12 6 4 3 5 6 5 5 8 5 2 3 7 3 4 5 7 6 6 5 10 9 6 6 5 3 1 2 2 3 2 3 4 2 3 3 2 3 3 3 4 6 6
11 6 8 5 6 5 7 8 9 5 3 6 6 6 5 4 10 9 11 9 10 9 5 6 6 5 5 3 2 1 1 2 2 4 4 4 2 3 3 2 3 5 6 8
15 8 7 9 11 7 12 9 10 5 5 2 1 4 8 3 6 10 13 12 10 9 9 9 8 7 5 5 4 2 2 4 3 4 5 4 4 2 2 3 5 6 5 6
13 6 9 11 9 8 13 1 6 4 3 2 7 6 6 5 9 6 8 10 12 10 8 8 8 6 4 3 3 1 2 3 3 5 5 6 4 4 4 3 4 4 4 3
4 6 4 5 4 1 4 6 3 5 4 7 1 3 10 10 11 11 20 15 14 10 9 8 8 7 5 6 5 2 1 3 3 6 6 5 4 4 4 4 3 4 2 2
10 11 10 6 9 10 9 11 7 8 5 9 3 5 8 6 8 7 13 15 14 10 8 9 10 8 7 7 7 4 2 2 4 5 5 5 6 3 3 3 3 2 3 3
11 12 4 7 6 11 6 4 8 5 2 3 4 7 10 2 6 8 9 13 14 12 9 11 8 8 8 6 7 7 5 2 2 5 5 4 5 5 4 4 4 3 3 2
8 6 8 12 5 4 9 5 3 3 4 6 4 3 7 6 4 5 9 11 12 9 9 9 8 8 6 7 5 6 6 7 4 3 3 4 4 5 3 4 6 6 4 4
8 7 4 3 7 11 2 2 4 5 5 7 1 8 8 8 8 16 15 17 17 15 13 12 8 7 8 5 6 7 7 6 5 5 4 5 4 3 3 5 4 5 5 6
10 8 8 10 2 3 5 10 8 6 4 3 4 9 4 4 9 8 12 17 16 15 14 11 10 8 7 7 6 7 7 7 7 6 5 5 5 3 4 4 4 4 7 6
8 5 6 6 3 3 3 4 6 6 4 6 7 8 1 1 5 7 9 12 14 14 10 8 8 8 8 7 7 7 7 7 6 5 5 4 4 5 3 3 4 5 7 6
12 7 15 20 13 7 6 6 7 8 5 4 5 6 7 6 3 3 8 10 14 14 14 11 9 10 8 8 7 8 7 6 6 7 6 6 5 5 4 3 4 6 5 7
11 16 11 14 17 15 9 12 12 7 8 9 10 9 7 7 3 6 2 9 12 14 15 14 13 11 10 8 7 7 6 7 6 6 7 7 6 5 4 5 5 6 6 6
4 6 7 5 10 15 15 13 18 9 2 1 5 8 6 5 6 6 13 15 17 17 18 17 15 12 13 12 9 7 8 7 6 6 7 5 6 6 5 5 6 6 6 6
4 5 4 4 5 9 7 14 12 7 7 10 9 12 4 4 8 12 12 15 22 22 20 19 19 17 14 14 11 9 9 7 8 7 6 6 6 5 5 6 6 6 6 5
7 6 3 4 5 10 9 16 15 20 8 8 5 9 9 9 8 13 8 12 13 16 19 19 16 15 14 13 10 9 8 9 10 8 7 6 6 6 6 6 7 5 4 5
7 7 4 7 3 5 4 5 10 10 13 12 17 8 6 5 2 8 12 14 17 18 19 19 20 19 15 14 12 11 10 11 10 10 9 8 7 7 6 7 7 4 5 4
8 4 8 5 8 18 6 5 6 7 6 12 10 10 9 6 3 12 8 10 13 14 17 17 18 17 16 15 14 13 12 12 12 11 11 10 9 8 8 7 7 3 3 3
5 4 12 5 5 6 6 11 10 8 10 10 16 14 11 8 12 6 3 6 8 11 16 13 16 19 21 17 16 15 14 15 15 13 11 11 11 11 9 8 5 5 5 5
7 7 5 4 4 6 6 5 17 7 2 6 7 8 12 11 7 8 4 3 7 8 9 15 16 16 16 17 17 17 17 16 15 13 13 12 11 10 8 10 6 6 7 7
12 8 8 9 8 5 21 11 14 7 8 7 9 7 9 9 8 8 6 6 8 11 15 15 18 18 16 18 19 20 17 16 16 15 14 13 12 11 10 9 7 5 6 6
4 5 5 4 5 9 17 11 2 6 5 4 4 7 10 9 8 6 6 7 5 8 14 16 17 17 18 19 21 23 18 18 18 18 16 13 13 12 10 9 8 8 8 8
7 9 8 4 1 7 4 15 8 7 6 6 6 7 9 7 6 7 8 5 6 4 9 15 19 18 21 21 23 19 18 19 20 18 17 15 13 12 12 11 11 11 12 13
6 11 9 9 9 8 8 11 10 9 7 7 8 7 5 7 7 1 5 2 3 3 6 8 13 16 17 19 21 19 19 20 20 18 15 14 13 11 11 10 9 13 13 18
Wind_Direction
172 143 203 212 205 203 221 235 256 245 245 180 224 224 230 196 204 171 172 177 174 178 204 149 165 211 222 331 28 328 314 316 357 358 351 338 331 341 326 340 16 48 67 82
35 216 213 219 210 200 235 252 272 283 244 175 254 246 215 186 215 179 170 185 179 185 180 166 164 216 152 327 300 343 275 327 358 63 310 280 296 304 335 317 37 83 51 57
217 241 190 172 265 266 257 229 249 235 338 236 125 304 207 221 179 157 187 176 168 180 177 179 179 204 167 314 306 236 240 293 2 31 44 327 320 29 359 342 5 43 79 65
216 206 187 185 222 182 267 234 247 248 152 234 139 258 293 230 209 191 177 179 183 189 170 179 178 199 178 213 282 312 244 4 16 46 57 49 34 28 0 3 20 41 30 57
221 163 186 219 233 194 248 238 231 228 204 140 309 85 265 118 218 227 199 188 184 190 175 184 185 200 198 194 226 268 68 52 33 115 101 91 62 55 12 359 52 46 38 35
200 199 159 211 230 192 245 257 48 44 85 33 234 147 285 224 210 206 190 192 177 184 184 189 194 200 169 198 242 272 81 58 83 120 117 107 85 82 86 59 41 35 18 33
174 209 192 150 203 5 114 80 295 340 351 219 262 108 228 250 237 198 186 184 173 176 176 180 185 203 179 188 217 232 53 88 100 116 129 126 99 85 90 84 96 103 121 32
186 235 185 200 177 205 203 182 169 211 222 259 187 231 255 230 274 216 192 170 153 168 177 182 191 194 191 197 209 198 206 137 136 119 122 132 128 109 59 78 91 103 104 102
191 231 231 176 182 155 220 178 204 128 353 46 253 299 319 24 37 106 132 148 168 177 177 188 192 194 193 200 205 189 182 210 191 130 129 132 130 121 115 72 74 92 106 85
210 219 205 236 136 209 163 175 87 359 174 252 277 267 246 271 175 150 158 173 175 164 176 192 190 196 196 206 193 178 179 190 191 153 135 129 132 129 124 99 74 77 92 108
146 147 259 140 178 212 205 155 56 123 136 183 191 263 221 245 197 201 187 176 178 175 182 188 195 198 187 179 177 187 176 180 183 172 156 135 126 114 110 104 97 88 80 94
194 163 209 211 255 243 175 186 152 164 228 152 157 262 30 275 214 197 201 180 178 177 178 189 186 185 174 178 176 186 183 179 194 181 158 149 132 123 114 115 101 87 87 75
164 219 228 298 25 16 179 173 133 114 90 186 152 263 85 116 234 197 188 176 175 168 163 179 176 183 182 182 182 179 188 198 187 173 158 150 146 135 129 137 131 106 99 91
176 178 201 224 222 158 188 185 185 139 125 169 229 290 310 325 227 195 182 173 173 176 178 183 188 185 186 180 178 176 194 195 192 162 171 162 167 164 156 151 132 111 110 102
167 217 215 229 212 196 189 176 188 162 171 177 224 207 230 274 149 282 261 147 169 173 181 186 192 188 185 178 181 179 180 174 188 169 172 180 168 157 147 136 129 121 117 113
322 219 148 206 193 205 207 202 188 187 100 66 140 247 211 148 158 188 192 178 180 188 190 187 189 193 183 184 180 179 174 175 169 174 191 172 153 149 152 130 128 120 121 125
220 144 119 226 196 116 254 192 170 171 185 170 192 228 161 287 249 225 219 203 186 188 189 188 188 189 190 182 176 178 177 153 170 174 177 172 160 156 151 135 130 130 132 121
209 124 107 123 116 200 269 172 180 190 186 177 204 175 182 212 241 254 156 194 211 197 192 193 188 188 190 181 174 163 151 167 173 175 175 172 163 162 149 143 142 130 129 144
200 121 108 147 202 289 318 176 144 158 228 201 203 192 203 209 17 276 226 192 206 195 197 191 188 184 175 181 171 164 160 168 176 182 176 176 168 161 164 165 165 163 150 163
81 94 132 116 187 229 186 203 152 80 268 192 187 200 190 116 168 249 234 205 204 201 194 191 185 179 174 182 163 167 173 170 183 182 182 176 171 167 177 172 170 159 159 181
122 70 180 132 205 279 233 154 136 140 232 180 189 201 158 182 204 192 262 227 199 195 186 176 175 182 184 175 168 179 179 184 188 181 175 177 178 176 182 171 164 164 167 158
148 142 183 104 141 223 158 159 167 186 125 146 179 169 178 207 215 220 208 278 188 165 168 173 176 190 180 179 176 182 190 187 182 179 177 179 185 185 172 177 177 169 164 179
190 178 173 180 199 206 170 185 203 164 153 188 163 167 177 185 219 210 198 223 185 187 187 186 186 180 180 185 189 189 188 180 181 180 184 184 184 185 177 175 174 159 176 184
205 134 147 120 207 175 187 224 153 183 182 146 191 163 169 197 211 211 244 244 274 168 190 187 178 185 185 188 192 205 178 178 181 187 188 187 185 187 182 190 188 189 191 202
182 140 153 220 236 108 196 219 190 176 129 132 166 187 204 200 221 211 222 214 248 238 206 189 184 186 193 186 199 193 184 179 185 189 189 190 194 188 190 193 188 196 212 202
190 163 173 204 194 169 195 206 171 148 145 174 194 215 210 163 194 250 299 219 234 176 148 162 192 195 197 196 198 188 185 181 185 188 192 193 193 192 197 195 207 230 231 210